KF6FPU-15 Weather Reports


Display with metric or nautical units.
time (UTC)temp
F
wind
direction
speed
MPH
gust
MPH
rain 1hr
in
rain 24hr
in
rain mn
in
humidity
%
barometer
mb
20260506155146 81 0 0.0 0.0 0.00 0.00 0.00 20 1020.5
20260506153146 81 0 0.0 0.0 0.00 0.00 0.00 20 1020.5
20260506152146 81 0 0.0 0.0 0.00 0.00 0.00 20 1020.4
20260506151146 81 0 0.0 0.0 0.00 0.00 0.00 20 1020.3
20260506150146 81 0 0.0 0.0 0.00 0.00 0.00 20 1020.3
20260506145146 81 0 0.0 0.0 0.00 0.00 0.00 20 1020.3
20260506144146 80 0 0.0 0.0 0.00 0.00 0.00 20 1020.2
20260506143146 80 0 0.0 0.0 0.00 0.00 0.00 20 1020.2
20260506142146 80 0 0.0 0.0 0.00 0.00 0.00 20 1020.0
20260506141146 80 0 0.0 0.0 0.00 0.00 0.00 20 1020.0
20260506140146 80 0 0.0 0.0 0.00 0.00 0.00 20 1019.8
20260506134146 81 0 0.0 0.0 0.00 0.00 0.00 20 1019.7
20260506133146 81 0 0.0 0.0 0.00 0.00 0.00 20 1019.6
20260506132146 81 0 0.0 0.0 0.00 0.00 0.00 20 1019.5
20260506131146 81 0 0.0 0.0 0.00 0.00 0.00 20 1019.5
20260506130146 81 0 0.0 0.0 0.00 0.00 0.00 20 1019.4
20260506125146 81 0 0.0 0.0 0.00 0.00 0.00 20 1019.4
20260506124146 81 0 0.0 0.0 0.00 0.00 0.00 20 1019.3
20260506123146 81 0 0.0 0.0 0.00 0.00 0.00 20 1019.3
20260506122146 81 0 0.0 0.0 0.00 0.00 0.00 20 1019.3
20260506121146 81 0 0.0 0.0 0.00 0.00 0.00 20 1019.3
20260506115146 81 0 0.0 0.0 0.00 0.00 0.00 20 1019.2
20260506114146 81 0 0.0 0.0 0.00 0.00 0.00 20 1019.2
20260506113146 81 0 0.0 0.0 0.00 0.00 0.00 20 1019.1
20260506112146 81 0 0.0 0.0 0.00 0.00 0.00 20 1019.0
20260506111146 81 0 0.0 0.0 0.00 0.00 0.00 20 1018.9
20260506110146 81 0 0.0 0.0 0.00 0.00 0.00 20 1018.9
20260506105146 81 0 0.0 0.0 0.00 0.00 0.00 20 1018.8
20260506104146 81 0 0.0 0.0 0.00 0.00 0.00 20 1018.7
20260506103146 81 0 0.0 0.0 0.00 0.00 0.00 20 1018.7
20260506102146 81 0 0.0 0.0 0.00 0.00 0.00 20 1018.6
20260506100146 81 0 0.0 0.0 0.00 0.00 0.00 20 1018.5
20260506095146 81 0 0.0 0.0 0.00 0.00 0.00 20 1018.5
20260506094146 81 0 0.0 0.0 0.00 0.00 0.00 20 1018.5
20260506093146 81 0 0.0 0.0 0.00 0.00 0.00 20 1018.5
20260506092146 81 0 0.0 0.0 0.00 0.00 0.00 20 1018.6
20260506091146 81 0 0.0 0.0 0.00 0.00 0.00 20 1018.5
20260506090146 81 0 0.0 0.0 0.00 0.00 0.00 20 1018.6
20260506085146 81 0 0.0 0.0 0.00 0.00 0.00 20 1018.5
20260506084146 81 0 0.0 0.0 0.00 0.00 0.00 20 1018.6
20260506083146 81 0 0.0 0.0 0.00 0.00 0.00 20 1018.6
20260506081146 81 0 0.0 0.0 0.00 0.00 0.00 20 1018.6
20260506080146 81 0 0.0 0.0 0.00 0.00 0.00 20 1018.5
20260506073146 81 0 0.0 0.0 0.00 0.00 0.00 20 1018.3
20260506072146 81 0 0.0 0.0 0.00 0.00 0.00 20 1018.2
20260506071146 81 0 0.0 0.0 0.00 0.00 0.00 20 1018.1
20260506070146 81 0 0.0 0.0 0.00 0.00 0.00 20 1018.0
20260506062146 81 0 0.0 0.0 0.00 0.00 0.00 20 1017.7
20260506061146 81 0 0.0 0.0 0.00 0.00 0.00 20 1017.6
20260506060146 81 0 0.0 0.0 0.00 0.00 0.00 20 1017.5
20260506051146 82 0 0.0 0.0 0.00 0.00 0.00 20 1017.2
20260506050146 82 0 0.0 0.0 0.00 0.00 0.00 20 1017.1
20260506043146 82 0 0.0 0.0 0.00 0.00 0.00 20 1016.8
20260506042146 82 0 0.0 0.0 0.00 0.00 0.00 20 1016.7
20260506041146 80 0 0.0 0.0 0.00 0.00 0.00 20 1016.6
20260506040146 83 0 0.0 0.0 0.00 0.00 0.00 20 1016.5
20260506035146 83 0 0.0 0.0 0.00 0.00 0.00 20 1016.4
20260506034146 83 0 0.0 0.0 0.00 0.00 0.00 20 1016.2
20260506033146 83 0 0.0 0.0 0.00 0.00 0.00 20 1016.1
20260506032146 83 0 0.0 0.0 0.00 0.00 0.00 20 1016.0
20260506031146 83 0 0.0 0.0 0.00 0.00 0.00 20 1015.8
20260506030146 84 0 0.0 0.0 0.00 0.00 0.00 20 1015.6
20260506024146 84 0 0.0 0.0 0.00 0.00 0.00 20 1015.5
20260506023146 84 0 0.0 0.0 0.00 0.00 0.00 20 1015.4
20260506022146 84 0 0.0 0.0 0.00 0.00 0.00 20 1015.3
20260506021146 84 0 0.0 0.0 0.00 0.00 0.00 20 1015.1
20260506020146 84 0 0.0 0.0 0.00 0.00 0.00 20 1015.2
20260506015146 84 0 0.0 0.0 0.00 0.00 0.00 20 1015.1
20260506014146 85 0 0.0 0.0 0.00 0.00 0.00 20 1015.1
20260506013146 85 0 0.0 0.0 0.00 0.00 0.00 20 1015.1
20260506012146 85 0 0.0 0.0 0.00 0.00 0.00 20 1015.0
20260506011146 85 0 0.0 0.0 0.00 0.00 0.00 20 1014.9
20260506005146 85 0 0.0 0.0 0.00 0.00 0.00 20 1014.8
20260506004146 85 0 0.0 0.0 0.00 0.00 0.00 20 1014.8
20260506003146 85 0 0.0 0.0 0.00 0.00 0.00 20 1014.7
20260506002146 84 0 0.0 0.0 0.00 0.00 0.00 20 1014.8
20260506001146 81 0 0.0 0.0 0.00 0.00 0.00 19 1014.7
20260506000146 82 0 0.0 0.0 0.00 0.00 0.00 20 1014.6
20260505235146 84 0 0.0 0.0 0.00 0.00 0.00 19 1014.6
20260505234146 86 0 0.0 0.0 0.00 0.00 0.00 18 1014.6
20260505233146 88 0 0.0 0.0 0.00 0.00 0.00 19 1014.7
20260505232146 90 0 0.0 0.0 0.00 0.00 0.00 18 1014.7
20260505230146 96 0 0.0 0.0 0.00 0.00 0.00 18 1014.7
20260505225146 98 0 0.0 0.0 0.00 0.00 0.00 18 1014.7
20260505224146 96 0 0.0 0.0 0.00 0.00 0.00 18 1014.8
20260505223146 97 0 0.0 0.0 0.00 0.00 0.00 18 1014.9
20260505222147 94 0 0.0 0.0 0.00 0.00 0.00 18 1015.0
20260505221146 93 0 0.0 0.0 0.00 0.00 0.00 18 1015.0
20260505220146 92 0 0.0 0.0 0.00 0.00 0.00 18 1015.1
20260505215146 92 0 0.0 0.0 0.00 0.00 0.00 18 1015.1
20260505214146 98 0 0.0 0.0 0.00 0.00 0.00 18 1015.1
20260505213146 98 0 0.0 0.0 0.00 0.00 0.00 18 1015.2
20260505211146 97 0 0.0 0.0 0.00 0.00 0.00 18 1015.2
20260505210146 97 0 0.0 0.0 0.00 0.00 0.00 18 1015.3
20260505205146 96 0 0.0 0.0 0.00 0.00 0.00 18 1015.4
20260505204146 96 0 0.0 0.0 0.00 0.00 0.00 18 1015.4
20260505203146 95 0 0.0 0.0 0.00 0.00 0.00 18 1015.5
20260505202146 95 0 0.0 0.0 0.00 0.00 0.00 19 1015.5
20260505201146 95 0 0.0 0.0 0.00 0.00 0.00 19 1015.5
20260505200146 94 0 0.0 0.0 0.00 0.00 0.00 19 1015.5
20260505195146 93 0 0.0 0.0 0.00 0.00 0.00 19 1015.7
20260505194146 91 0 0.0 0.0 0.00 0.00 0.00 19 1015.7
20260505192146 87 0 0.0 0.0 0.00 0.00 0.00 20 1015.8
20260505191146 84 0 0.0 0.0 0.00 0.00 0.00 20 1015.8
20260505190146 81 0 0.0 0.0 0.00 0.00 0.00 20 1015.8
20260505185146 81 0 0.0 0.0 0.00 0.00 0.00 20 1015.8
20260505184146 81 0 0.0 0.0 0.00 0.00 0.00 20 1015.7
20260505183146 81 0 0.0 0.0 0.00 0.00 0.00 21 1015.6
20260505182146 81 0 0.0 0.0 0.00 0.00 0.00 21 1015.5
20260505181146 81 0 0.0 0.0 0.00 0.00 0.00 20 1015.5
20260505180146 81 0 0.0 0.0 0.00 0.00 0.00 21 1015.5
20260505175146 80 0 0.0 0.0 0.00 0.00 0.00 21 1015.4
20260505173146 80 0 0.0 0.0 0.00 0.00 0.00 21 1015.2
20260505172146 79 0 0.0 0.0 0.00 0.00 0.00 21 1015.1
20260505171146 79 0 0.0 0.0 0.00 0.00 0.00 21 1015.3
20260505170146 79 0 0.0 0.0 0.00 0.00 0.00 21 1015.3
20260505165146 79 0 0.0 0.0 0.00 0.00 0.00 20 1015.3
20260505164147 79 0 0.0 0.0 0.00 0.00 0.00 21 1015.3
20260505163146 79 0 0.0 0.0 0.00 0.00 0.00 20 1015.2
20260505162146 78 0 0.0 0.0 0.00 0.00 0.00 20 1015.2
20260505161146 78 0 0.0 0.0 0.00 0.00 0.00 20 1015.2
20260505160146 79 0 0.0 0.0 0.00 0.00 0.00 21 1015.1